Dodge Center, MN

8:03 AM CDT on September 24, 2017 (GMT -0500)
Dodge Center

Weather History for KTOB - September, 2013

Change the Weather History Date:

Tuesday, September 17, 2013

  Actual Average (KRST) Record (KRST)
Temperature  
Mean Temperature 52 °F -  
Max Temperature 60 °F 70 °F 94 °F (1955)
Min Temperature 44 °F 48 °F 29 °F (1916)
Degree Days  
Heating Degree Days 13    
Growing Degree Days 2 (Base 50)    
Moisture  
Dew Point 50 °F    
Average Humidity 87    
Maximum Humidity 94    
Minimum Humidity 72    
Precipitation  
Precipitation 0.03 in - - ()
Sea Level Pressure  
Sea Level Pressure 30.14 in    
Wind  
Wind Speed 9 mph (SSE)    
Max Wind Speed 20 mph    
Max Gust Speed 26 mph    
Visibility 7 miles    
Events Rain    
Averages and records for this station are not official NWS values.
T = Trace of Precipitation, MM = Missing Value Source: NWS Daily Summary

Daily Weather History Graph

Daily Weather History Graph

Search for Another Location

Airport or City:

Trip Planner

Search our weather history database for the weather conditions in past years. The results will help you decide how hot, cold, wet, or windy it might be!

Date:

Astronomy

Sep. 17, 2013 Rise Set
Actual Time 6:53 AM CDT 7:17 PM CDT
Civil Twilight 6:24 AM CDT 7:46 PM CDT
Nautical Twilight 5:49 AM CDT 8:20 PM CDT
Astronomical Twilight 5:14 AM CDT 8:55 PM CDT
Moon 6:06 PM CDT (9/17) 4:45 AM CDT (9/17)
Length of Visible Light 13h 22m
Length of Day
12h 24m
Waxing Gibbous, 96% of the Moon is Illuminated
Sep 17
Waxing Gibbous
Sep 19
Full
Sep 26
Last Quarter
Oct 4
New
Oct 11
First Quarter

Hourly Weather History & Observations

Time (CDT) Temp. Windchill Dew Point Humidity Pressure Visibility Wind Dir Wind Speed Gust Speed Precip Events Conditions
12:21 AM 46.4 °F 43.5 °F 42.8 °F 87% 30.28 in 10.0 mi SSE 5.8 mph - N/A   Scattered Clouds
1:01 AM 46.4 °F 42.9 °F 41.0 °F 81% 30.28 in 10.0 mi SSE 6.9 mph - N/A   Clear
1:21 AM 46.4 °F 43.5 °F 41.0 °F 81% 30.28 in 10.0 mi SSE 5.8 mph - N/A   Scattered Clouds
1:41 AM 46.4 °F 42.9 °F 41.0 °F 81% 30.28 in 10.0 mi SSE 6.9 mph - N/A   Scattered Clouds
2:01 AM 46.4 °F 43.5 °F 41.0 °F 81% 30.27 in 10.0 mi SSE 5.8 mph - N/A   Clear
2:41 AM 44.6 °F 41.4 °F 41.0 °F 87% 30.27 in 10.0 mi SSE 5.8 mph - N/A   Clear
3:21 AM 44.6 °F 40.7 °F 41.0 °F 87% 30.26 in 10.0 mi SE 6.9 mph - N/A   Scattered Clouds
3:41 AM 44.6 °F 40.7 °F 41.0 °F 87% 30.26 in 10.0 mi SE 6.9 mph - N/A   Scattered Clouds
4:01 AM 46.4 °F 42.4 °F 42.8 °F 87% 30.25 in 10.0 mi SE 8.1 mph - N/A   Clear
4:41 AM 46.4 °F 42.9 °F 42.8 °F 87% 30.25 in 10.0 mi SE 6.9 mph - N/A   Scattered Clouds
5:21 AM 46.4 °F 42.4 °F 42.8 °F 87% 30.24 in 10.0 mi SE 8.1 mph - N/A   Clear
5:41 AM 46.4 °F 42.4 °F 42.8 °F 87% 30.24 in 10.0 mi SE 8.1 mph - N/A   Clear
6:01 AM 46.4 °F 41.9 °F 42.8 °F 87% 30.24 in 10.0 mi SE 9.2 mph - N/A   Scattered Clouds
6:21 AM 46.4 °F 42.4 °F 44.6 °F 93% 30.24 in 10.0 mi SE 8.1 mph - N/A   Scattered Clouds
6:41 AM 46.4 °F 42.4 °F 44.6 °F 93% 30.24 in 10.0 mi SE 8.1 mph - N/A   Scattered Clouds
7:01 AM 46.4 °F 42.4 °F 42.8 °F 87% 30.24 in 10.0 mi SE 8.1 mph - N/A   Scattered Clouds
7:21 AM 46.4 °F 42.9 °F 44.6 °F 93% 30.24 in 10.0 mi SE 6.9 mph - N/A   Clear
7:41 AM 46.4 °F 42.4 °F 44.6 °F 93% 30.24 in 10.0 mi SE 8.1 mph - N/A   Clear
8:01 AM 46.4 °F 42.9 °F 44.6 °F 93% 30.23 in 10.0 mi SE 6.9 mph - N/A   Clear
8:21 AM 48.2 °F - 44.6 °F 87% 30.23 in 10.0 mi SE 10.4 mph - N/A   Clear
8:41 AM 48.2 °F - 44.6 °F 87% 30.23 in 10.0 mi SE 9.2 mph - N/A   Clear
9:01 AM 50.0 °F - 46.4 °F 87% 30.22 in 10.0 mi SSE 10.4 mph - N/A   Clear
9:21 AM 51.8 °F - 46.4 °F 82% 30.22 in 10.0 mi SE 9.2 mph - N/A   Clear
9:41 AM 51.8 °F - 46.4 °F 82% 30.21 in 10.0 mi SSE 11.5 mph - N/A   Clear
10:01 AM 53.6 °F - 48.2 °F 82% 30.20 in 10.0 mi SE 12.7 mph - N/A   Clear
10:21 AM 55.4 °F - 48.2 °F 77% 30.20 in 10.0 mi SSE 11.5 mph - N/A   Clear
10:41 AM 57.2 °F - 48.2 °F 72% 30.19 in 10.0 mi SSE 11.5 mph - N/A   Clear
11:01 AM 57.2 °F - 50.0 °F 77% 30.19 in 10.0 mi SSE 9.2 mph - N/A   Clear
11:21 AM 57.2 °F - 50.0 °F 77% 30.19 in 10.0 mi SSE 12.7 mph - N/A   Clear
11:46 AM 57.2 °F - 50.0 °F 77% 30.18 in 10.0 mi SSE 13.8 mph - N/A   Clear
11:54 AM 59.0 °F - 50.0 °F 72% 30.18 in 10.0 mi SSE 13.8 mph - N/A   Clear
12:13 PM 59.0 °F - 51.8 °F 77% 30.18 in 10.0 mi South 12.7 mph 19.6 mph N/A   Scattered Clouds
12:33 PM 59.0 °F - 51.8 °F 77% 30.17 in 10.0 mi SSE 12.7 mph 17.3 mph N/A   Mostly Cloudy
12:54 PM 59.0 °F - 51.8 °F 77% 30.16 in 10.0 mi SSE 10.4 mph - N/A   Mostly Cloudy
1:13 PM 60.8 °F - 51.8 °F 72% 30.15 in 10.0 mi SSE 12.7 mph 18.4 mph N/A   Mostly Cloudy
1:33 PM 60.8 °F - 51.8 °F 72% 30.14 in 10.0 mi South 19.6 mph 26.5 mph N/A   Overcast
1:54 PM 59.0 °F - 51.8 °F 77% 30.13 in 10.0 mi SSE 13.8 mph 19.6 mph N/A   Mostly Cloudy
2:14 PM 59.0 °F - 51.8 °F 77% 30.12 in 10.0 mi SSE 16.1 mph 20.7 mph N/A   Overcast
2:33 PM 57.2 °F - 51.8 °F 82% 30.12 in 10.0 mi SSE 12.7 mph 21.9 mph N/A   Overcast
2:54 PM 57.2 °F - 53.6 °F 88% 30.11 in 5.0 mi SSE 10.4 mph 17.3 mph N/A Rain Rain
3:14 PM 55.4 °F - 53.6 °F 94% 30.11 in 4.0 mi SE 12.7 mph - N/A   Light Drizzle
3:33 PM 55.4 °F - 53.6 °F 94% 30.10 in 7.0 mi SSE 11.5 mph 17.3 mph N/A   Overcast
3:54 PM 55.4 °F - 53.6 °F 94% 30.09 in 2.0 mi SE 11.5 mph 17.3 mph N/A   Overcast
4:14 PM 55.4 °F - 53.6 °F 94% 30.08 in 2.0 mi SE 9.2 mph - N/A   Light Drizzle
4:33 PM 55.4 °F - 53.6 °F 94% 30.07 in 2.0 mi SE 11.5 mph 17.3 mph N/A   Overcast
4:54 PM 55.4 °F - 53.6 °F 94% 30.06 in 2.0 mi SE 10.4 mph - N/A   Overcast
5:13 PM 55.4 °F - 53.6 °F 94% 30.06 in 3.0 mi SE 15.0 mph - N/A   Overcast
5:34 PM 55.4 °F - 53.6 °F 94% 30.05 in 2.5 mi SE 10.4 mph 17.3 mph 0.01 in   Light Drizzle
5:53 PM 55.4 °F - 53.6 °F 94% 30.04 in 3.0 mi SE 12.7 mph 18.4 mph 0.01 in   Overcast
6:14 PM 55.4 °F - 53.6 °F 94% 30.04 in 3.0 mi SE 10.4 mph 16.1 mph N/A   Drizzle
6:33 PM 57.2 °F - 53.6 °F 88% 30.03 in 3.0 mi SE 10.4 mph - N/A   Overcast
6:53 PM 57.2 °F - 53.6 °F 88% 30.03 in 5.0 mi SSE 12.7 mph 18.4 mph N/A   Overcast
7:14 PM 57.2 °F - 53.6 °F 88% 30.02 in 4.0 mi SSE 12.7 mph 18.4 mph 0.01 in   Drizzle
7:34 PM 57.2 °F - 53.6 °F 88% 30.01 in 4.0 mi SSE 13.8 mph 19.6 mph 0.01 in   Light Drizzle
7:53 PM 57.2 °F - 53.6 °F 88% 30.01 in 5.0 mi SSE 10.4 mph 17.3 mph 0.01 in   Overcast
8:14 PM 57.2 °F - 55.4 °F 94% 30.01 in 5.0 mi SSE 9.2 mph - N/A   Overcast
8:33 PM 57.2 °F - 55.4 °F 94% 30.01 in 4.0 mi SSE 11.5 mph 17.3 mph N/A   Overcast
8:54 PM 57.2 °F - 55.4 °F 94% 30.01 in 3.0 mi SSE 9.2 mph - N/A   Overcast
9:14 PM 57.2 °F - 55.4 °F 94% 30.00 in 3.0 mi SSE 9.2 mph - N/A   Overcast
9:33 PM 57.2 °F - 55.4 °F 94% 30.00 in 2.5 mi SSE 9.2 mph - N/A   Drizzle
9:54 PM 57.2 °F - 55.4 °F 94% 30.00 in 2.5 mi SSE 8.1 mph - 0.01 in   Drizzle
10:13 PM 57.2 °F - 55.4 °F 94% 30.00 in 3.0 mi South 10.4 mph - N/A   Overcast
10:34 PM 57.2 °F - 55.4 °F 94% 30.00 in 4.0 mi South 9.2 mph - N/A   Overcast
10:53 PM 59.0 °F - 55.4 °F 88% 29.99 in 4.0 mi South 12.7 mph - N/A   Overcast
11:14 PM 59.0 °F - 57.2 °F 94% 29.99 in 3.0 mi South 11.5 mph 20.7 mph N/A   Overcast
11:33 PM 59.0 °F - 57.2 °F 94% 29.98 in 1.8 mi South 10.4 mph 17.3 mph N/A   Overcast
11:54 PM 59.0 °F - 57.2 °F 94% 29.98 in 1.5 mi South 12.7 mph 17.3 mph N/A   Overcast